sat.trackr.live / text

‹ back to catalog

O3B FM9

NORAD 40351 · 2014-083D

PAYLOAD ACTIVE UNKNOWN

§ Identity

Operator
Country
O3B
Launch date
2014-12-18
Launch site
FRGUI
Launch vehicle
Mass (kg)
RCS (m²)
16.38

Purposes: comms

External: N2YO · Heavens-Above · Gunter

§ Orbital elements

Epoch: 2026-09-09T18:42:28.926144Z

Period
287.93 min
Inclination
0.0544°
Eccentricity
0.0002616
Mean motion
5.00116081 rev/d
Perigee alt
8,062.1 km
Apogee alt
8,069.7 km
Semi-major
14,444.0 km
B*
0.0000e+0
RAAN
346.8238°
Arg perigee
179.6109°
Mean anomaly
193.5713°
Rev number
21,430

§ Raw data

O3B FM91 40351U 14083D   26252.77950146 -.00000028  00000+0  00000+0 0  99942 40351   0.0544 346.8238 0002616 179.6109 193.5713  5.00116081214301

JSON: /api/v1/satellites/40351 · /tle

For live sub-satellite position, see the globe view (requires WebGL).

§ Visibility from observer

Set your observer location to see the next 7 days of passes ≥ 10°. The values pass through the URL so the page stays shareable.

No JS? Fill the form by hand. The geolocation button needs JavaScript.